User: anonymous   Login
Location: Unspecified
(0.0000°N, 0.0000°E)
Time: 18:57:25
(UTC+00:00)
Language:

NANOSAT-1 - Orbit

View from above orbital plane
View from above orbital plane
View from above satellite
View from above satellite

Ground track
Ground track

The orbit data is extracted from the following two-line orbital elements,

1 28493U 04049B   19341.49857162  .00000048  00000-0  15344-4 0  9996
2 28493  98.1296  66.0316 0004674  18.4485 341.6891 14.73539878803947
Epoch (UTC): 07 December 2019 11:57:56
Eccentricity: 0.0004674
inclination: 98.1296°
perigee height: 646 km
apogee height: 653 km
right ascension of ascending node: 66.0316°
argument of perigee: 18.4485°
revolutions per day: 14.73539878
mean anomaly at epoch: 341.6891°
orbit number at epoch: 80394

The dashed part of the orbit path shows where the satellite is in the earth's shadow,  

DLR